Delray Beach, FL (33483)

3:10 PM EDT on May 25, 2017 (GMT -0400)
Lake Ida - Garden House | | Change Station

Elev 0 ft 26.48 °N, 80.07 °W | Updated 1 minute ago

Thunderstorm
Thunderstorm
79.0 °F
Feels Like 82 °F
N
3.0
Wind Variable Wind from SSE

Today
High -- | Low -- °F
--% Chance of Precip.
Yesterday
High -- | Low -- °F
Precip. -- in
Pressure 29.91 in
Visibility 10.0 miles
Clouds Scattered Clouds 2200 ft
Scattered Clouds 2700 ft
Mostly Cloudy 3400 ft
Heat Index 82 °F
Dew Point 73 °F
Humidity 83%
Rainfall 0.66 in
Snow Depth Not available.
6:29 AM 8:05 PM
Waning Crescent, 0% visible
SPECI KPMP 251855Z 30014KT 10SM -RA SCT022 SCT027 BKN034 27/23 A2991 RMK AO2 WSHFT 1840 LTG DSNT NE-SE PRESRR P0000 T02720233
Pressure 29.91 in
Visibility 10.0 miles
Clouds Scattered Clouds 2200 ft
Scattered Clouds 2700 ft
Mostly Cloudy 3400 ft
Heat Index 82 °F
Dew Point 73 °F
Humidity 83%
Rainfall 0.66 in
Snow Depth Not available.
6:29 AM 8:05 PM
Waning Crescent, 0% visible
SPECI KPMP 251855Z 30014KT 10SM -RA SCT022 SCT027 BKN034 27/23 A2991 RMK AO2 WSHFT 1840 LTG DSNT NE-SE PRESRR P0000 T02720233

Get Severe Weather Alerts

Thanks for signing up!

Be on the lookout for a verification email in your inbox.

You'll start receiving the daily forecast at 6 AM.

×

10-Day Weather Forecast

Almanac

Astronomy

May. 25, 2017 Rise Set
Actual Time
Civil Twilight
Nautical Twilight
Astronomical Twilight
Moon
Length of Visible Light
Length of Day
Tomorrow will be .
, % of the Moon is Illuminated

Today's Extremes

State Highs State Lows

Community

WunderPhotos

Category 6

Welcome to Category 6. This is the collective home for Weather Underground's featured writeups by Dr. Jeff Masters (right), Bob Henson (left), Chris Burt, and other regular contributors.

Nearby

Air Quality

  Air Quality AQ Index Pollutant
Not available.

Snow Depth

Station Depth Elevation

Earthquake Activity

City Distance Mag. Time & Date
Minimum magnitude displayed is 2.5.

Coastal Water Temperatures

Place Temperature

Stations

Nearby Weather Stations

Station Location Temp. Windchill Dew Point Humidity Wind Precip. Elev Updated Type
                   

Watches & Warnings

There are currently no watches in effect.